Weather History for FAGG - June, 2012

Change the Weather History Date:

Monday, June 18, 2012

  Actual Average Record
Temperature  
Mean Temperature 54 °F -  
Max Temperature 57 °F 64 °F 80 °F (2013)
Min Temperature 48 °F 44 °F 40 °F (2015)
Degree Days  
Heating Degree Days 12    
Growing Degree Days 4 (Base 50)    
Moisture  
Dew Point 53 °F    
Average Humidity 95    
Maximum Humidity 100    
Minimum Humidity 81    
Precipitation  
Precipitation 0.20 in - - ()
Sea Level Pressure  
Sea Level Pressure 30.31 in    
Wind  
Wind Speed 9 mph ()    
Max Wind Speed 16 mph    
Max Gust Speed -    
Visibility 5.9 miles    
Events Rain    
Averages and records for this station are not official NWS values.
T = Trace of Precipitation, MM = Missing Value Source: Averaged Metar Reports

Daily Weather History Graph

Daily Weather History Graph

Search for Another Location

Airport or City:

Trip Planner

Search our weather history database for the weather conditions in past years. The results will help you decide how hot, cold, wet, or windy it might be!

Date:

Astronomy

Jun. 18, 2012 Rise Set
Actual Time 7:35 AM SAST 5:28 PM SAST
Civil Twilight 7:07 AM SAST 5:56 PM SAST
Nautical Twilight 6:35 AM SAST 6:27 PM SAST
Astronomical Twilight 6:05 AM SAST 6:57 PM SAST
Moon 6:25 AM SAST (6/18) 4:40 PM SAST (6/18)
Length of Visible Light 10h 48m
Length of Day
9h 53m
Waning Crescent, 1% of the Moon is Illuminated
Jun 18
Waning Crescent
Jun 19
New
Jun 27
First Quarter
Jul 3
Full
Jul 11
Last Quarter

Hourly Weather History & Observations

Time (SAST) Temp. Dew Point Humidity Pressure Visibility Wind Dir Wind Speed Gust Speed Precip Events Conditions
12:00 AM 55.4 °F 53.6 °F 94% 30.12 in 6.2 mi West 16.1 mph - N/A   Overcast
1:00 AM 53.6 °F 53.6 °F 100% 30.12 in 3.1 mi West 13.8 mph - N/A Rain Rain
2:00 AM 54 °F 53 °F 97% 30.16 in 4 mi WNW 11.5 mph - -  
2:00 AM 53.6 °F 53.6 °F 100% 30.15 in 4.3 mi WNW 10.4 mph - N/A Rain Light Rain
3:00 AM 53.6 °F 53.6 °F 100% 30.18 in 6.2 mi WNW 9.2 mph - N/A Rain Light Rain
4:00 AM 55.4 °F 53.6 °F 94% 30.18 in 6.2 mi West 13.8 mph - N/A   Mostly Cloudy
5:00 AM 55 °F 54 °F 93% 30.21 in 12 mi WNW 11.5 mph - -   Partly Cloudy
5:00 AM 55.4 °F 53.6 °F 94% 30.18 in 6.2 mi WNW 10.4 mph - N/A   Mostly Cloudy
6:00 AM 55.4 °F 53.6 °F 94% 30.21 in 6.2 mi WNW 8.1 mph - N/A   Mostly Cloudy
7:00 AM 53.6 °F 53.6 °F 100% 30.24 in - West 12.7 mph - N/A Rain Light Rain
8:00 AM 54 °F 54 °F 98% 30.29 in 2 mi West 8.1 mph - - Rain Rain
8:00 AM 53.6 °F 53.6 °F 100% 30.27 in 1.5 mi WNW 8.1 mph - N/A Rain Rain
9:00 AM 53.6 °F 53.6 °F 100% 30.30 in 1.2 mi West 8.1 mph - N/A Rain Rain
10:00 AM 53.6 °F 53.6 °F 100% 30.33 in - West 9.2 mph - N/A   Light Drizzle
11:00 AM 54 °F 54 °F 100% 30.38 in 2 mi WNW 9.2 mph - - Rain Light Rain
11:00 AM 53.6 °F 53.6 °F 100% 30.36 in 1.5 mi West 9.2 mph - N/A Rain Light Rain
12:00 PM 55.4 °F 55.4 °F 100% 30.36 in 6.2 mi WNW 9.2 mph - N/A   Mostly Cloudy
1:00 PM 55.4 °F 53.6 °F 94% 30.36 in 6.2 mi WNW 5.8 mph - N/A   Mostly Cloudy
2:00 PM 57 °F 54 °F 87% 30.37 in 12 mi WNW 6.9 mph - -   Partly Cloudy
2:00 PM 57.2 °F 53.6 °F 88% 30.36 in 6.2 mi WNW 6.9 mph - N/A   Mostly Cloudy
3:00 PM 55.4 °F 53.6 °F 94% 30.36 in 6.2 mi WNW 6.9 mph - N/A   Mostly Cloudy
5:00 PM 55 °F 51 °F 81% 30.39 in 12 mi WNW 8.1 mph - -   Mostly Cloudy
5:00 PM 55.4 °F 50.0 °F 82% 30.39 in 6.2 mi WNW 8.1 mph - N/A   Mostly Cloudy
6:00 PM 51.8 °F 50.0 °F 94% 30.39 in 6.2 mi NNW 4.6 mph - N/A   Mostly Cloudy
7:00 PM 53.6 °F 50.0 °F 88% 30.39 in 6.2 mi NW 3.5 mph - N/A   Mostly Cloudy
8:00 PM 51 °F 50 °F 95% 30.43 in 12 mi NW 3.5 mph - -   Mostly Cloudy
8:00 PM 51.8 °F 50.0 °F 94% 30.42 in 6.2 mi NW 3.5 mph - N/A   Mostly Cloudy
9:00 PM 51.8 °F 50.0 °F 94% 30.42 in 6.2 mi Variable 2.3 mph - N/A   Mostly Cloudy
10:00 PM 50.0 °F 50.0 °F 100% 30.42 in - NNW 2.3 mph - N/A   Clear
11:00 PM 48.2 °F 48.2 °F 100% 30.42 in - NW 3.5 mph - N/A   Clear